Lid_Strength_Index
2 1 1 1 1 1 1 1 1 1 1 2 2 3 4 4 5 9 12 9 7 4 6 9 9 10 11 11 10 8 10 11 11 10 9 6 7 5 5 5 6 6 5 8 9
1 1 2 2 2 2 1 1 1 1 1 1 2 2 2 3 7 11 7 7 5 3 10 11 12 12 13 13 11 11 13 12 9 7 8 6 7 6 7 7 7 7 6 10 9
3 2 3 3 3 3 3 2 2 2 1 1 2 2 3 3 11 11 6 5 3 4 10 10 11 12 14 13 13 12 14 11 10 8 7 7 7 7 8 8 6 6 5 8 9
4 4 3 3 3 3 3 3 3 3 2 2 2 3 4 7 14 9 2 1 2 7 8 9 11 13 14 15 13 15 13 12 11 9 9 10 8 10 9 7 5 6 6 7 9
5 5 5 5 4 4 4 4 4 3 3 3 3 4 7 12 12 7 2 2 4 7 9 10 11 12 14 14 13 15 14 13 12 11 11 11 11 10 10 9 8 8 9 8 8
6 6 6 6 5 5 5 5 5 4 3 3 4 5 11 15 10 7 8 6 6 7 9 9 10 9 11 12 12 12 12 13 12 12 12 13 12 11 11 9 10 10 9 9 8
6 6 6 6 6 6 6 5 5 4 3 4 4 6 13 12 11 9 9 9 8 8 9 8 7 8 9 11 10 11 13 12 12 11 12 12 14 13 11 10 10 10 10 9 9
6 6 6 5 5 5 5 4 4 4 3 5 4 7 13 11 10 11 10 10 9 9 9 9 7 9 10 9 10 12 13 15 12 11 11 10 14 10 10 10 11 10 10 10 10
5 5 5 5 4 4 4 4 2 3 4 3 6 10 13 9 12 11 11 12 11 10 10 10 10 10 11 12 13 12 15 14 13 11 12 11 13 10 12 12 12 11 11 11 10
5 5 5 5 5 4 4 3 2 4 3 4 10 12 11 12 12 12 11 11 12 12 12 11 12 13 13 13 17 15 15 14 14 12 13 13 14 11 10 11 12 11 11 10 11
5 5 5 5 5 4 5 4 7 7 8 9 9 10 11 10 10 11 11 12 12 13 15 13 14 16 15 13 13 13 15 15 13 13 13 12 12 12 10 11 12 12 11 11 11
6 6 6 5 5 6 5 9 11 10 14 9 9 9 7 5 9 11 9 12 13 15 14 16 18 13 12 13 14 14 15 15 13 13 14 13 14 12 12 12 12 12 12 11 10
6 6 6 6 5 7 8 9 7 9 13 11 8 8 7 5 8 8 10 11 12 15 15 14 13 13 14 14 15 15 16 15 15 13 13 15 16 14 12 11 11 11 11 10 10
5 5 6 6 9 8 9 7 6 7 14 13 11 10 10 7 9 5 9 8 12 13 13 15 12 15 16 16 14 17 13 14 15 16 18 15 19 15 12 13 13 12 11 11 10
5 5 6 6 9 10 9 7 7 7 21 12 11 9 10 11 12 12 9 10 11 14 13 14 15 16 15 15 14 15 13 14 15 16 17 17 19 17 14 14 13 11 10 10 10
5 6 7 8 8 8 7 7 7 14 21 14 12 14 14 11 12 11 11 10 11 12 13 13 14 14 14 16 14 15 15 15 16 17 20 17 18 18 14 13 12 11 10 10 9
6 6 8 8 10 7 7 9 16 20 14 18 18 16 15 14 13 13 13 13 14 16 15 13 15 15 15 17 16 15 16 19 20 20 20 16 18 17 13 12 12 11 10 10 9
6 7 9 8 7 7 9 14 22 19 18 15 15 14 15 13 14 13 14 14 12 14 15 15 16 14 13 14 16 17 16 18 20 20 18 19 20 16 13 11 12 12 11 10 9
7 9 9 8 8 7 12 20 20 18 16 15 13 15 15 14 14 13 13 13 12 12 15 15 16 14 14 12 12 16 18 15 17 20 19 17 16 14 12 12 12 12 12 11 11
10 11 11 9 8 9 15 19 17 13 12 12 15 13 16 15 16 15 15 13 16 13 12 14 16 15 14 13 13 14 13 18 18 21 21 18 16 15 13 12 14 14 13 13 13
10 14 11 8 8 12 19 18 15 11 10 11 12 12 13 14 14 15 14 12 14 15 13 13 14 15 15 15 15 16 16 16 16 17 19 20 16 14 15 14 15 15 14 13 13
12 17 10 8 15 19 17 16 13 12 8 8 8 10 11 11 14 14 16 14 12 12 16 12 14 16 15 14 14 13 14 15 17 19 18 18 16 14 14 14 14 14 14 13 13
15 15 9 10 19 18 16 16 14 12 9 9 10 9 9 10 14 12 14 12 12 14 14 13 14 17 16 15 15 16 15 15 14 15 16 19 17 14 14 14 14 14 14 14 14
14 18 14 14 14 16 17 17 16 10 9 7 8 8 9 11 9 13 12 12 12 13 10 11 16 17 19 17 14 16 15 15 15 17 16 16 15 15 15 15 15 15 14 14 15
14 17 16 19 17 16 17 16 16 15 9 8 10 9 10 13 12 13 11 11 11 11 12 13 18 17 17 16 15 13 15 15 16 15 16 14 14 13 14 15 16 15 15 15 16
15 16 15 16 17 17 17 17 16 14 12 12 11 9 9 12 11 13 11 11 13 11 13 12 19 17 18 16 14 16 14 13 14 14 13 12 13 14 15 15 16 17 16 17 17
11 11 14 16 16 18 17 17 16 14 11 8 9 9 10 9 7 7 6 7 9 11 13 14 15 17 20 16 16 18 15 14 13 12 12 15 12 12 16 17 17 17 17 18 18